Find Kosmos-1878

NORAD ID: 18337 Int'l Des: 1987-074 Owner: UNKS Country: SU operational
LEOCIRCULARPOLAR

Current View

Loading 3D Globe...

About Kosmos-1878

Kosmos-1878 (NORAD 18337) is a satellite launched Sep 7, 1987 by UNKS of SU. It operates in LEO, CIRCULAR, POLAR orbit with a mass of 225.00 kg.

Upcoming Passes

Passes for default location (London). Set your location on the main map for personalized predictions.

Altitude History

Loading altitude history...

Two-Line Element Set

1 18337U 87074D 26195.47476528 .00000035 00000-0 13143-3 0 9997
2 18337 82.5695 275.1864 0003841 149.8887 221.0481 12.64386627792745
Epoch: Jul 14, 2026 • Age: 8 hours

Current Status

Altitude 1414.0 km
Apogee / Perigee N/A
Velocity 7.16 km/s
Sub-Earth Point 54.54°N, 64.45°E
Launch Date Sep 7, 1987
Age 38.8 years
Type other

Technical Details

Classification Payload
Mass 225.00 kg
Dry Mass 225.00 kg
Total Mass 225.00 kg
Length 1.60 m
Diameter 0.80 m
Span 7.00 m
Shape Cyl + Ant
Manufacturer NPOPM
Bus Type Strela-3
Phase Status In Orbit
Owner/State UNKS/SU

Most Searched